Private Wetterstation Wechselburg
Wetterdaten: Mittwoch, 14.09.2016
Datum Zeit Temp. +2m Bodentemp. Temp.+5cm Temp. Wind Windchill X Diff Temp. Feuchte +2m Feuchte +5cm Sonnenschein Luftdruck Regen Wind Richtung Richtung Sonnenschein Taupunkt Windchill Windben
14.09.2016 00:00 19,0 C 26,3 C 18,9 C 18,9 C 18,6 C 0,0 C 75 % 79 % 0 % 1013,6 hPa 0,0 l/m 0,0 km/h (0 Bft) O-NO 67 0 min 14,5 C 18,6 C 0,0 km/h (0 Bft)
14.09.2016 00:05 18,9 C 26,3 C 18,8 C 18,7 C 18,4 C 0,0 C 75 % 79 % 0 % 1013,6 hPa 0,0 l/m 0,0 km/h (0 Bft) O-NO 67 0 min 14,4 C 18,4 C 0,0 km/h (0 Bft)
14.09.2016 00:12 18,9 C 26,3 C 18,9 C 18,7 C 18,4 C 0,0 C 75 % 79 % 0 % 1013,6 hPa 0,0 l/m 0,0 km/h (0 Bft) N 0 0 min 14,4 C 18,4 C 0,0 km/h (0 Bft)
14.09.2016 00:20 18,7 C 26,3 C 18,7 C 18,6 C 18,3 C 0,0 C 75 % 79 % 0 % 1013,6 hPa 0,0 l/m 0,0 km/h (0 Bft) O-SO 112 0 min 14,2 C 18,3 C 0,0 km/h (0 Bft)
14.09.2016 00:25 18,7 C 26,3 C 18,5 C 18,5 C 18,0 C 0,0 C 75 % 80 % 0 % 1013,5 hPa 0,0 l/m 0,0 km/h (0 Bft) O-SO 112 0 min 14,2 C 18,0 C 0,0 km/h (0 Bft)
14.09.2016 00:30 18,5 C 26,3 C 18,5 C 18,3 C 17,9 C 0,0 C 75 % 80 % 0 % 1013,5 hPa 0,0 l/m 0,0 km/h (0 Bft) O-SO 112 0 min 14,0 C 17,9 C 0,0 km/h (0 Bft)
14.09.2016 00:35 18,3 C 26,3 C 18,5 C 18,0 C 17,5 C 0,0 C 75 % 80 % 0 % 1013,5 hPa 0,0 l/m 0,0 km/h (0 Bft) O-SO 112 0 min 13,8 C 17,5 C 0,0 km/h (0 Bft)
14.09.2016 00:40 18,3 C 26,3 C 18,4 C 18,0 C 17,3 C 0,0 C 75 % 80 % 0 % 1013,5 hPa 0,0 l/m 0,0 km/h (0 Bft) O-SO 112 0 min 13,8 C 17,3 C 0,0 km/h (0 Bft)
14.09.2016 00:45 18,1 C 26,3 C 18,3 C 17,7 C 17,0 C 0,0 C 76 % 80 % 0 % 1013,4 hPa 0,0 l/m 0,0 km/h (0 Bft) O-SO 112 0 min 13,8 C 17,0 C 0,0 km/h (0 Bft)
14.09.2016 00:50 17,9 C 26,3 C 18,2 C 17,6 C 17,0 C 0,0 C 76 % 80 % 0 % 1013,4 hPa 0,0 l/m 0,0 km/h (0 Bft) O-SO 112 0 min 13,6 C 17,0 C 0,0 km/h (0 Bft)
14.09.2016 00:55 17,7 C 26,3 C 18,0 C 17,4 C 16,7 C 0,0 C 76 % 81 % 0 % 1013,4 hPa 0,0 l/m 0,0 km/h (0 Bft) O-SO 112 0 min 13,4 C 16,7 C 0,0 km/h (0 Bft)
14.09.2016 01:00 17,6 C 26,3 C 17,9 C 17,3 C 16,7 C 0,0 C 76 % 81 % 0 % 1013,4 hPa 0,0 l/m 0,0 km/h (0 Bft) O-SO 112 0 min 13,3 C 16,7 C 0,0 km/h (0 Bft)
14.09.2016 01:05 17,4 C 26,3 C 17,8 C 17,1 C 16,6 C 0,0 C 77 % 81 % 0 % 1013,4 hPa 0,0 l/m 0,0 km/h (0 Bft) O-SO 112 0 min 13,3 C 16,6 C 0,0 km/h (0 Bft)
14.09.2016 01:10 17,2 C 26,2 C 17,7 C 17,0 C 16,6 C 0,0 C 77 % 81 % 0 % 1013,4 hPa 0,0 l/m 0,0 km/h (0 Bft) O-SO 112 0 min 13,1 C 16,6 C 0,0 km/h (0 Bft)
14.09.2016 01:15 17,1 C 26,3 C 17,6 C 16,9 C 16,4 C 0,0 C 77 % 82 % 0 % 1013,4 hPa 0,0 l/m 0,0 km/h (0 Bft) O-SO 112 0 min 13,0 C 16,4 C 0,0 km/h (0 Bft)
14.09.2016 01:20 16,9 C 26,3 C 17,5 C 16,7 C 16,4 C 0,0 C 78 % 82 % 0 % 1013,4 hPa 0,0 l/m 0,0 km/h (0 Bft) O-SO 112 0 min 13,0 C 16,4 C 0,0 km/h (0 Bft)
14.09.2016 01:25 16,8 C 26,2 C 17,4 C 16,6 C 16,3 C 0,0 C 78 % 83 % 0 % 1013,4 hPa 0,0 l/m 0,0 km/h (0 Bft) O-SO 112 0 min 12,9 C 16,3 C 0,0 km/h (0 Bft)
14.09.2016 01:30 16,7 C 26,2 C 17,4 C 16,5 C 16,2 C 0,0 C 78 % 83 % 0 % 1013,4 hPa 0,0 l/m 0,0 km/h (0 Bft) O-SO 112 0 min 12,8 C 16,2 C 0,0 km/h (0 Bft)
14.09.2016 01:35 16,4 C 26,2 C 17,3 C 16,3 C 16,0 C 0,0 C 78 % 83 % 0 % 1013,4 hPa 0,0 l/m 0,0 km/h (0 Bft) O 90 0 min 12,6 C 16,0 C 0,0 km/h (0 Bft)
14.09.2016 01:40 16,4 C 26,2 C 17,3 C 16,3 C 16,0 C 0,0 C 79 % 83 % 0 % 1013,4 hPa 0,0 l/m 0,0 km/h (0 Bft) O 90 0 min 12,7 C 16,0 C 0,0 km/h (0 Bft)
14.09.2016 01:45 16,2 C 26,3 C 17,2 C 16,1 C 15,9 C 0,0 C 79 % 83 % 0 % 1013,3 hPa 0,0 l/m 0,0 km/h (0 Bft) O 90 0 min 12,6 C 15,9 C 0,0 km/h (0 Bft)
14.09.2016 01:50 16,1 C 26,2 C 17,0 C 16,0 C 15,9 C 0,0 C 79 % 83 % 0 % 1013,3 hPa 0,0 l/m 0,0 km/h (0 Bft) O 90 0 min 12,5 C 15,9 C 0,0 km/h (0 Bft)
14.09.2016 01:55 15,9 C 26,3 C 17,0 C 15,9 C 15,8 C 0,0 C 80 % 84 % 0 % 1013,3 hPa 0,0 l/m 0,0 km/h (0 Bft) O-NO 67 0 min 12,5 C 15,8 C 0,0 km/h (0 Bft)
14.09.2016 02:00 15,8 C 26,2 C 16,9 C 15,8 C 15,8 C 0,0 C 80 % 84 % 0 % 1013,3 hPa 0,0 l/m 0,0 km/h (0 Bft) S 180 0 min 12,4 C 15,8 C 0,0 km/h (0 Bft)
14.09.2016 02:05 15,7 C 26,2 C 16,8 C 15,7 C 15,6 C 0,0 C 80 % 84 % 0 % 1013,1 hPa 0,0 l/m 0,0 km/h (0 Bft) S 180 0 min 12,3 C 15,6 C 0,0 km/h (0 Bft)
14.09.2016 02:12 15,4 C 26,3 C 16,6 C 15,4 C 15,3 C 0,0 C 80 % 84 % 0 % 1013,1 hPa 0,0 l/m 0,0 km/h (0 Bft) N 0 0 min 12,0 C 15,3 C 0,0 km/h (0 Bft)
14.09.2016 02:20 15,4 C 26,3 C 16,7 C 15,4 C 15,3 C 0,0 C 80 % 84 % 0 % 1013,1 hPa 0,0 l/m 0,0 km/h (0 Bft) O-NO 67 0 min 12,0 C 15,3 C 0,0 km/h (0 Bft)
14.09.2016 02:25 15,3 C 26,3 C 16,5 C 15,3 C 15,2 C 0,0 C 80 % 84 % 0 % 1013,3 hPa 0,0 l/m 0,0 km/h (0 Bft) O-NO 67 0 min 11,9 C 15,2 C 0,0 km/h (0 Bft)
14.09.2016 02:30 15,1 C 26,3 C 16,5 C 15,1 C 15,1 C 0,0 C 80 % 84 % 0 % 1013,3 hPa 0,0 l/m 0,0 km/h (0 Bft) O-NO 67 0 min 11,7 C 15,1 C 0,0 km/h (0 Bft)
14.09.2016 02:35 15,1 C 26,3 C 16,4 C 15,0 C 14,9 C 0,0 C 80 % 85 % 0 % 1013,3 hPa 0,0 l/m 0,0 km/h (0 Bft) N-NW 337 0 min 11,7 C 14,9 C 0,0 km/h (0 Bft)
14.09.2016 02:40 14,9 C 26,3 C 16,3 C 14,9 C 14,9 C 0,0 C 81 % 85 % 0 % 1013,3 hPa 0,0 l/m 0,0 km/h (0 Bft) NW 315 0 min 11,7 C 14,9 C 0,0 km/h (0 Bft)
14.09.2016 02:45 14,8 C 26,3 C 16,3 C 14,9 C 14,9 C 0,1 C 82 % 85 % 0 % 1013,2 hPa 0,0 l/m 0,0 km/h (0 Bft) O-NO 67 0 min 11,8 C 14,9 C 0,0 km/h (0 Bft)
14.09.2016 02:50 14,7 C 26,3 C 16,1 C 14,9 C 14,9 C 0,2 C 82 % 85 % 0 % 1013,2 hPa 0,0 l/m 0,0 km/h (0 Bft) O-NO 67 0 min 11,7 C 14,9 C 0,0 km/h (0 Bft)
14.09.2016 02:55 14,7 C 26,3 C 16,1 C 14,8 C 14,8 C 0,1 C 82 % 85 % 0 % 1013,2 hPa 0,0 l/m 0,0 km/h (0 Bft) O-NO 67 0 min 11,7 C 14,8 C 0,0 km/h (0 Bft)
14.09.2016 03:00 14,7 C 26,3 C 16,1 C 14,7 C 14,7 C 0,0 C 82 % 85 % 0 % 1013,2 hPa 0,0 l/m 0,0 km/h (0 Bft) O-NO 67 0 min 11,7 C 14,7 C 0,0 km/h (0 Bft)
14.09.2016 03:05 14,4 C 26,3 C 15,9 C 14,7 C 14,7 C 0,3 C 82 % 85 % 0 % 1013,1 hPa 0,0 l/m 0,0 km/h (0 Bft) N-NW 337 0 min 11,4 C 14,7 C 0,0 km/h (0 Bft)
14.09.2016 03:10 14,5 C 26,2 C 15,9 C 14,6 C 14,6 C 0,1 C 82 % 85 % 0 % 1013,1 hPa 0,0 l/m 0,0 km/h (0 Bft) W-NW 292 0 min 11,5 C 14,6 C 0,0 km/h (0 Bft)
14.09.2016 03:15 14,3 C 26,2 C 15,9 C 14,5 C 14,5 C 0,2 C 82 % 85 % 0 % 1013,1 hPa 0,0 l/m 0,0 km/h (0 Bft) N-NO 22 0 min 11,3 C 14,5 C 0,0 km/h (0 Bft)
14.09.2016 03:20 14,3 C 26,2 C 15,9 C 14,4 C 14,4 C 0,1 C 82 % 86 % 0 % 1013,1 hPa 0,0 l/m 0,0 km/h (0 Bft) N-NO 22 0 min 11,3 C 14,4 C 0,0 km/h (0 Bft)
14.09.2016 03:25 14,1 C 26,2 C 15,7 C 14,3 C 14,3 C 0,2 C 82 % 86 % 0 % 1013,1 hPa 0,0 l/m 0,0 km/h (0 Bft) N-NO 22 0 min 11,1 C 14,3 C 0,0 km/h (0 Bft)
14.09.2016 03:30 14,0 C 26,2 C 15,7 C 14,3 C 14,3 C 0,3 C 83 % 86 % 0 % 1013,1 hPa 0,0 l/m 0,0 km/h (0 Bft) N-NO 22 0 min 11,2 C 14,3 C 0,0 km/h (0 Bft)
14.09.2016 03:35 14,0 C 26,2 C 15,6 C 14,3 C 14,3 C 0,3 C 83 % 86 % 0 % 1013,1 hPa 0,0 l/m 0,0 km/h (0 Bft) N-NO 22 0 min 11,2 C 14,3 C 0,0 km/h (0 Bft)
14.09.2016 03:40 13,9 C 26,2 C 15,6 C 14,3 C 14,3 C 0,4 C 83 % 86 % 0 % 1013,1 hPa 0,0 l/m 0,0 km/h (0 Bft) W 270 0 min 11,1 C 14,3 C 0,0 km/h (0 Bft)
14.09.2016 03:45 13,9 C 26,2 C 15,6 C 14,1 C 14,1 C 0,2 C 83 % 86 % 0 % 1013,2 hPa 0,0 l/m 0,0 km/h (0 Bft) W 270 0 min 11,1 C 14,1 C 0,0 km/h (0 Bft)
14.09.2016 03:50 13,7 C 26,1 C 15,6 C 14,1 C 14,1 C 0,4 C 82 % 86 % 0 % 1013,2 hPa 0,0 l/m 0,0 km/h (0 Bft) W 270 0 min 10,7 C 14,1 C 0,0 km/h (0 Bft)
14.09.2016 03:55 13,7 C 26,1 C 15,6 C 14,1 C 14,1 C 0,4 C 83 % 86 % 0 % 1013,2 hPa 0,0 l/m 0,0 km/h (0 Bft) W 270 0 min 10,9 C 14,1 C 0,0 km/h (0 Bft)
14.09.2016 04:00 13,6 C 26,1 C 15,6 C 14,0 C 14,0 C 0,4 C 83 % 86 % 0 % 1013,2 hPa 0,0 l/m 0,0 km/h (0 Bft) W 270 0 min 10,8 C 14,0 C 0,0 km/h (0 Bft)
14.09.2016 04:05 13,6 C 26,1 C 15,6 C 13,9 C 13,9 C 0,3 C 83 % 87 % 0 % 1013,4 hPa 0,0 l/m 0,0 km/h (0 Bft) W 270 0 min 10,8 C 13,9 C 0,0 km/h (0 Bft)
14.09.2016 04:12 13,4 C 26,1 C 15,5 C 13,8 C 13,8 C 0,4 C 83 % 87 % 0 % 1013,4 hPa 0,0 l/m 0,0 km/h (0 Bft) N 0 0 min 10,6 C 13,8 C 0,0 km/h (0 Bft)
14.09.2016 04:20 13,5 C 26,1 C 15,4 C 13,8 C 13,8 C 0,3 C 83 % 87 % 0 % 1013,4 hPa 0,0 l/m 0,0 km/h (0 Bft) W 270 0 min 10,7 C 13,8 C 0,0 km/h (0 Bft)
14.09.2016 04:25 13,4 C 26,1 C 15,2 C 13,7 C 13,7 C 0,3 C 83 % 87 % 0 % 1013,1 hPa 0,0 l/m 0,0 km/h (0 Bft) W 270 0 min 10,6 C 13,7 C 0,0 km/h (0 Bft)
14.09.2016 04:30 13,3 C 26,1 C 15,3 C 13,7 C 13,7 C 0,4 C 83 % 87 % 0 % 1013,1 hPa 0,0 l/m 0,0 km/h (0 Bft) W-SW 247 0 min 10,5 C 13,7 C 0,0 km/h (0 Bft)
14.09.2016 04:35 13,2 C 26,1 C 15,2 C 13,7 C 13,7 C 0,5 C 84 % 87 % 0 % 1013,1 hPa 0,0 l/m 0,0 km/h (0 Bft) W 270 0 min 10,6 C 13,7 C 0,0 km/h (0 Bft)
14.09.2016 04:40 13,3 C 26,1 C 15,2 C 13,6 C 13,6 C 0,3 C 84 % 87 % 0 % 1013,1 hPa 0,0 l/m 0,0 km/h (0 Bft) W 270 0 min 10,7 C 13,6 C 0,0 km/h (0 Bft)
14.09.2016 04:45 13,3 C 26,1 C 15,2 C 13,7 C 13,7 C 0,4 C 84 % 87 % 0 % 1013,1 hPa 0,0 l/m 0,0 km/h (0 Bft) O-NO 67 0 min 10,7 C 13,7 C 0,0 km/h (0 Bft)
14.09.2016 04:50 13,3 C 26,0 C 15,3 C 13,8 C 13,8 C 0,5 C 84 % 87 % 0 % 1013,1 hPa 0,0 l/m 0,0 km/h (0 Bft) O-NO 67 0 min 10,7 C 13,8 C 0,0 km/h (0 Bft)
14.09.2016 04:55 13,2 C 26,0 C 15,3 C 13,7 C 13,7 C 0,5 C 84 % 87 % 0 % 1013,1 hPa 0,0 l/m 0,0 km/h (0 Bft) S 180 0 min 10,6 C 13,7 C 0,0 km/h (0 Bft)
14.09.2016 05:00 13,2 C 26,0 C 15,2 C 13,7 C 13,7 C 0,5 C 84 % 87 % 0 % 1013,1 hPa 0,0 l/m 0,0 km/h (0 Bft) S 180 0 min 10,6 C 13,7 C 0,0 km/h (0 Bft)
14.09.2016 05:05 13,1 C 26,0 C 15,1 C 13,6 C 13,6 C 0,5 C 84 % 87 % 0 % 1013,1 hPa 0,0 l/m 0,0 km/h (0 Bft) O-NO 67 0 min 10,5 C 13,6 C 0,0 km/h (0 Bft)
14.09.2016 05:10 13,1 C 26,0 C 15,1 C 13,7 C 13,7 C 0,6 C 84 % 87 % 0 % 1013,1 hPa 0,0 l/m 0,0 km/h (0 Bft) O-NO 67 0 min 10,5 C 13,7 C 0,0 km/h (0 Bft)
14.09.2016 05:15 13,1 C 26,0 C 15,1 C 13,7 C 13,7 C 0,6 C 85 % 87 % 0 % 1013,1 hPa 0,0 l/m 0,0 km/h (0 Bft) SW 225 0 min 10,6 C 13,7 C 0,0 km/h (0 Bft)
14.09.2016 05:20 13,1 C 26,0 C 15,1 C 13,7 C 13,7 C 0,6 C 85 % 87 % 0 % 1013,1 hPa 0,0 l/m 0,0 km/h (0 Bft) W-SW 247 0 min 10,6 C 13,7 C 0,0 km/h (0 Bft)
14.09.2016 05:25 13,1 C 26,0 C 15,0 C 13,7 C 13,7 C 0,6 C 85 % 87 % 0 % 1013,4 hPa 0,0 l/m 0,0 km/h (0 Bft) W-SW 247 0 min 10,6 C 13,7 C 0,0 km/h (0 Bft)
14.09.2016 05:30 13,0 C 25,9 C 15,1 C 13,7 C 13,7 C 0,7 C 85 % 87 % 0 % 1013,4 hPa 0,0 l/m 0,0 km/h (0 Bft) W-SW 247 0 min 10,5 C 13,7 C 0,0 km/h (0 Bft)
14.09.2016 05:35 13,1 C 25,9 C 15,2 C 13,9 C 13,9 C 0,8 C 85 % 87 % 0 % 1013,4 hPa 0,0 l/m 0,0 km/h (0 Bft) W-SW 247 0 min 10,6 C 13,9 C 0,0 km/h (0 Bft)
14.09.2016 05:40 13,1 C 25,9 C 15,2 C 13,9 C 13,9 C 0,8 C 85 % 87 % 0 % 1013,4 hPa 0,0 l/m 0,0 km/h (0 Bft) O-NO 67 0 min 10,6 C 13,9 C 0,0 km/h (0 Bft)
14.09.2016 05:45 13,3 C 25,9 C 15,2 C 14,1 C 14,1 C 0,8 C 85 % 88 % 0 % 1013,2 hPa 0,0 l/m 0,0 km/h (0 Bft) O-NO 67 0 min 10,8 C 14,1 C 0,0 km/h (0 Bft)
14.09.2016 05:50 13,3 C 25,9 C 15,3 C 14,3 C 14,3 C 1,0 C 85 % 87 % 0 % 1013,2 hPa 0,0 l/m 0,0 km/h (0 Bft) O-NO 67 0 min 10,8 C 14,3 C 0,0 km/h (0 Bft)
14.09.2016 05:55 13,2 C 25,9 C 15,3 C 14,2 C 14,2 C 1,0 C 85 % 87 % 0 % 1013,2 hPa 0,0 l/m 0,0 km/h (0 Bft) W 270 0 min 10,7 C 14,2 C 0,0 km/h (0 Bft)
14.09.2016 06:00 13,2 C 25,9 C 15,3 C 14,2 C 14,2 C 1,0 C 85 % 87 % 0 % 1013,2 hPa 0,0 l/m 0,0 km/h (0 Bft) NW 315 0 min 10,7 C 14,2 C 0,0 km/h (0 Bft)
14.09.2016 06:05 13,3 C 25,9 C 15,2 C 14,1 C 14,1 C 0,8 C 85 % 87 % 0 % 1013,1 hPa 0,0 l/m 0,0 km/h (0 Bft) NO 45 0 min 10,8 C 14,1 C 0,0 km/h (0 Bft)
14.09.2016 06:12 13,2 C 25,9 C 15,2 C 14,3 C 14,3 C 1,1 C 85 % 87 % 0 % 1013,1 hPa 0,0 l/m 0,0 km/h (0 Bft) N 0 0 min 10,7 C 14,3 C 0,0 km/h (0 Bft)
14.09.2016 06:20 13,3 C 25,8 C 15,3 C 14,4 C 14,4 C 1,1 C 86 % 87 % 0 % 1013,1 hPa 0,0 l/m 0,0 km/h (0 Bft) O-NO 67 0 min 11,0 C 14,4 C 0,0 km/h (0 Bft)
14.09.2016 06:25 13,5 C 25,8 C 15,4 C 14,5 C 14,5 C 1,0 C 86 % 87 % 0 % 1013,4 hPa 0,0 l/m 0,0 km/h (0 Bft) O-NO 67 0 min 11,2 C 14,5 C 0,0 km/h (0 Bft)
14.09.2016 06:30 13,5 C 25,8 C 15,5 C 14,5 C 14,5 C 1,0 C 86 % 88 % 0 % 1013,4 hPa 0,0 l/m 0,0 km/h (0 Bft) O-NO 67 0 min 11,2 C 14,5 C 0,0 km/h (0 Bft)
14.09.2016 06:35 13,3 C 25,8 C 15,3 C 14,2 C 14,2 C 0,9 C 85 % 87 % 0 % 1013,4 hPa 0,0 l/m 0,0 km/h (0 Bft) O-NO 67 0 min 10,8 C 14,2 C 0,0 km/h (0 Bft)
14.09.2016 06:40 13,2 C 25,8 C 15,3 C 14,2 C 14,2 C 1,0 C 86 % 87 % 0 % 1013,4 hPa 0,0 l/m 0,0 km/h (0 Bft) O-NO 67 0 min 10,9 C 14,2 C 0,0 km/h (0 Bft)
14.09.2016 06:45 13,3 C 25,8 C 15,2 C 14,1 C 14,1 C 0,8 C 85 % 87 % 0 % 1013,6 hPa 0,0 l/m 0,0 km/h (0 Bft) O-NO 67 0 min 10,8 C 14,1 C 0,0 km/h (0 Bft)
14.09.2016 06:50 13,2 C 25,8 C 15,2 C 14,0 C 14,0 C 0,8 C 85 % 87 % 0 % 1013,6 hPa 0,0 l/m 0,0 km/h (0 Bft) O-NO 67 0 min 10,7 C 14,0 C 0,0 km/h (0 Bft)
14.09.2016 06:55 13,3 C 25,8 C 15,2 C 14,1 C 14,1 C 0,8 C 85 % 87 % 21 % 1013,6 hPa 0,0 l/m 0,0 km/h (0 Bft) NO 45 5 min 10,8 C 14,1 C 0,0 km/h (0 Bft)
14.09.2016 07:00 13,2 C 25,8 C 15,3 C 14,2 C 14,2 C 1,0 C 86 % 87 % 26 % 1013,6 hPa 0,0 l/m 0,0 km/h (0 Bft) NO 45 5 min 10,9 C 14,2 C 0,0 km/h (0 Bft)
14.09.2016 07:05 13,2 C 25,7 C 15,4 C 14,4 C 14,4 C 1,2 C 86 % 87 % 32 % 1013,0 hPa 0,0 l/m 0,0 km/h (0 Bft) SO 135 5 min 10,9 C 14,4 C 0,0 km/h (0 Bft)
14.09.2016 07:10 13,3 C 25,7 C 15,5 C 14,5 C 14,5 C 1,2 C 86 % 88 % 32 % 1013,0 hPa 0,0 l/m 0,0 km/h (0 Bft) O-NO 67 5 min 11,0 C 14,5 C 0,0 km/h (0 Bft)
14.09.2016 07:15 13,4 C 25,7 C 15,5 C 15,0 C 15,0 C 1,6 C 86 % 88 % 42 % 1013,0 hPa 0,0 l/m 0,0 km/h (0 Bft) O-NO 67 5 min 11,1 C 15,0 C 0,0 km/h (0 Bft)
14.09.2016 07:20 13,5 C 25,7 C 15,5 C 15,2 C 15,2 C 1,7 C 86 % 88 % 45 % 1013,0 hPa 0,0 l/m 0,0 km/h (0 Bft) O-NO 67 5 min 11,2 C 15,2 C 0,0 km/h (0 Bft)
14.09.2016 07:25 13,7 C 25,7 C 15,7 C 15,3 C 15,3 C 1,6 C 86 % 88 % 42 % 1013,8 hPa 0,0 l/m 0,0 km/h (0 Bft) O-NO 67 5 min 11,4 C 15,3 C 0,0 km/h (0 Bft)
14.09.2016 07:30 13,7 C 25,7 C 15,6 C 15,4 C 15,4 C 1,7 C 87 % 88 % 45 % 1013,8 hPa 0,0 l/m 0,0 km/h (0 Bft) O-SO 112 5 min 11,6 C 15,4 C 0,0 km/h (0 Bft)
14.09.2016 07:35 13,9 C 25,7 C 15,7 C 15,9 C 15,9 C 2,0 C 87 % 88 % 53 % 1013,8 hPa 0,0 l/m 0,0 km/h (0 Bft) O-SO 112 5 min 11,8 C 15,9 C 0,0 km/h (0 Bft)
14.09.2016 07:40 14,1 C 25,7 C 15,8 C 16,7 C 16,7 C 2,6 C 87 % 88 % 68 % 1013,8 hPa 0,0 l/m 0,0 km/h (0 Bft) NO 45 5 min 12,0 C 16,7 C 0,0 km/h (0 Bft)
14.09.2016 07:45 14,6 C 25,7 C 16,0 C 18,2 C 18,2 C 3,6 C 87 % 88 % 95 % 1013,9 hPa 0,0 l/m 0,0 km/h (0 Bft) N-NW 337 5 min 12,5 C 18,2 C 0,0 km/h (0 Bft)
14.09.2016 07:50 14,8 C 25,6 C 16,3 C 19,1 C 19,1 C 4,3 C 87 % 87 % 100 % 1013,9 hPa 0,0 l/m 0,0 km/h (0 Bft) W 270 5 min 12,7 C 19,1 C 0,0 km/h (0 Bft)
14.09.2016 07:55 15,0 C 25,6 C 16,3 C 20,3 C 20,3 C 5,3 C 87 % 87 % 100 % 1013,9 hPa 0,0 l/m 0,0 km/h (0 Bft) W-SW 247 5 min 12,9 C 20,3 C 0,0 km/h (0 Bft)
14.09.2016 08:00 15,1 C 25,6 C 16,3 C 20,8 C 20,8 C 5,7 C 87 % 87 % 100 % 1013,9 hPa 0,0 l/m 0,0 km/h (0 Bft) NW 315 5 min 13,0 C 20,8 C 0,0 km/h (0 Bft)
14.09.2016 08:05 15,4 C 25,6 C 16,5 C 21,8 C 21,8 C 6,4 C 87 % 87 % 100 % 1013,8 hPa 0,0 l/m 0,0 km/h (0 Bft) NW 315 5 min 13,2 C 21,8 C 0,0 km/h (0 Bft)
14.09.2016 08:12 16,1 C 25,5 C 16,8 C 23,3 C 23,3 C 7,2 C 88 % 86 % 100 % 1013,8 hPa 0,0 l/m 0,0 km/h (0 Bft) N 0 7 min 14,1 C 23,3 C 0,0 km/h (0 Bft)
14.09.2016 08:20 16,2 C 25,5 C 16,9 C 23,5 C 23,5 C 7,3 C 87 % 86 % 100 % 1013,8 hPa 0,0 l/m 0,0 km/h (0 Bft) N-NW 337 8 min 14,0 C 23,5 C 0,0 km/h (0 Bft)
14.09.2016 08:25 16,5 C 25,5 C 17,0 C 24,0 C 24,0 C 7,5 C 86 % 86 % 100 % 1013,8 hPa 0,0 l/m 0,0 km/h (0 Bft) W 270 5 min 14,1 C 24,0 C 0,0 km/h (0 Bft)
14.09.2016 08:30 16,4 C 25,5 C 17,1 C 24,1 C 24,1 C 7,7 C 85 % 85 % 100 % 1013,8 hPa 0,0 l/m 0,2 km/h (0 Bft) N-NO 22 5 min 13,9 C 24,1 C 0,0 km/h (0 Bft)
14.09.2016 08:35 16,6 C 25,4 C 17,3 C 24,5 C 24,5 C 7,9 C 83 % 85 % 100 % 1013,8 hPa 0,0 l/m 0,2 km/h (0 Bft) NW 315 5 min 13,7 C 24,5 C 2,4 km/h (1 Bft)
14.09.2016 08:40 16,9 C 25,4 C 17,2 C 25,0 C 25,0 C 8,1 C 83 % 85 % 100 % 1013,8 hPa 0,0 l/m 0,0 km/h (0 Bft) NW 315 5 min 14,0 C 25,0 C 0,0 km/h (0 Bft)
14.09.2016 08:45 17,4 C 25,5 C 17,5 C 24,5 C 24,5 C 7,1 C 82 % 85 % 100 % 1014,1 hPa 0,0 l/m 0,0 km/h (0 Bft) SO 135 5 min 14,3 C 24,5 C 0,0 km/h (0 Bft)
14.09.2016 08:50 17,6 C 25,5 C 17,6 C 23,5 C 23,5 C 5,9 C 81 % 85 % 100 % 1014,1 hPa 0,0 l/m 0,0 km/h (0 Bft) S-SO 157 5 min 14,3 C 23,5 C 0,0 km/h (0 Bft)
14.09.2016 08:55 18,0 C 25,4 C 17,7 C 22,5 C 22,5 C 4,5 C 80 % 84 % 100 % 1014,1 hPa 0,0 l/m 0,0 km/h (0 Bft) S-SO 157 5 min 14,5 C 22,5 C 0,0 km/h (0 Bft)
14.09.2016 09:00 18,1 C 25,4 C 17,9 C 22,5 C 22,5 C 4,4 C 79 % 84 % 100 % 1014,1 hPa 0,0 l/m 0,0 km/h (0 Bft) O-NO 67 5 min 14,4 C 22,5 C 0,0 km/h (0 Bft)
14.09.2016 09:05 18,4 C 25,3 C 18,1 C 21,9 C 21,9 C 3,5 C 79 % 84 % 92 % 1013,9 hPa 0,0 l/m 0,0 km/h (0 Bft) N-NO 22 5 min 14,7 C 21,9 C 0,0 km/h (0 Bft)
14.09.2016 09:10 18,7 C 25,3 C 18,3 C 21,8 C 21,8 C 3,1 C 78 % 84 % 82 % 1013,9 hPa 0,0 l/m 0,0 km/h (0 Bft) N-NW 337 0 min 14,8 C 21,8 C 0,0 km/h (0 Bft)
14.09.2016 09:15 18,9 C 25,3 C 18,7 C 21,7 C 21,7 C 2,8 C 78 % 84 % 74 % 1013,9 hPa 0,0 l/m 0,2 km/h (0 Bft) N-NW 337 0 min 15,0 C 21,7 C 0,0 km/h (0 Bft)
14.09.2016 09:20 19,1 C 25,3 C 18,7 C 22,1 C 22,1 C 3,0 C 78 % 83 % 79 % 1013,9 hPa 0,0 l/m 0,2 km/h (0 Bft) SW 225 0 min 15,2 C 22,1 C 0,0 km/h (0 Bft)
14.09.2016 09:25 19,6 C 25,3 C 18,9 C 22,4 C 22,4 C 2,8 C 77 % 82 % 74 % 1013,6 hPa 0,0 l/m 0,5 km/h (0 Bft) O-NO 67 0 min 15,5 C 22,4 C 2,6 km/h (1 Bft)
14.09.2016 09:30 19,9 C 25,3 C 19,1 C 22,4 C 22,4 C 2,5 C 76 % 83 % 66 % 1013,6 hPa 0,0 l/m 0,5 km/h (0 Bft) N-NW 337 0 min 15,5 C 22,4 C 0,0 km/h (0 Bft)
14.09.2016 09:35 20,1 C 25,3 C 19,3 C 22,6 C 22,6 C 2,5 C 76 % 82 % 66 % 1013,6 hPa 0,0 l/m 0,2 km/h (0 Bft) N-NO 22 0 min 15,7 C 22,6 C 0,0 km/h (0 Bft)
14.09.2016 09:40 20,3 C 25,3 C 19,4 C 22,6 C 22,6 C 2,3 C 75 % 82 % 61 % 1013,6 hPa 0,0 l/m 0,2 km/h (0 Bft) NO 45 0 min 15,7 C 22,6 C 0,0 km/h (0 Bft)
14.09.2016 09:45 20,5 C 25,3 C 19,7 C 22,8 C 22,8 C 2,3 C 75 % 81 % 61 % 1013,9 hPa 0,0 l/m 0,2 km/h (0 Bft) N 360 0 min 15,9 C 22,8 C 0,0 km/h (0 Bft)
14.09.2016 09:50 20,7 C 25,3 C 19,8 C 23,0 C 23,0 C 2,3 C 74 % 81 % 61 % 1013,9 hPa 0,0 l/m 0,0 km/h (0 Bft) O-NO 67 0 min 15,9 C 23,0 C 0,0 km/h (0 Bft)
14.09.2016 09:55 21,2 C 25,3 C 20,3 C 23,1 C 23,1 C 1,9 C 73 % 80 % 50 % 1013,9 hPa 0,0 l/m 1,0 km/h (0 Bft) O-NO 67 0 min 16,2 C 23,1 C 8,2 km/h (2 Bft)
14.09.2016 10:00 21,6 C 25,3 C 20,5 C 23,2 C 23,2 C 1,6 C 72 % 79 % 42 % 1013,9 hPa 0,0 l/m 1,4 km/h (1 Bft) NO 45 0 min 16,3 C 23,2 C 1,6 km/h (1 Bft)
14.09.2016 10:05 22,0 C 25,3 C 20,9 C 23,6 C 23,6 C 1,6 C 72 % 78 % 42 % 1013,9 hPa 0,0 l/m 1,4 km/h (1 Bft) O-NO 67 0 min 16,7 C 23,6 C 2,9 km/h (1 Bft)
14.09.2016 10:11 22,7 C 25,2 C 21,4 C 24,1 C 24,1 C 1,4 C 68 % 74 % 37 % 1013,9 hPa 0,0 l/m 2,7 km/h (1 Bft) N 0 0 min 16,5 C 24,1 C 2,4 km/h (1 Bft)
14.09.2016 10:20 22,8 C 25,2 C 21,6 C 25,0 C 25,0 C 2,2 C 67 % 73 % 58 % 1013,9 hPa 0,0 l/m 2,9 km/h (1 Bft) O-NO 67 0 min 16,3 C 25,0 C 5,8 km/h (2 Bft)
14.09.2016 10:25 23,1 C 25,2 C 21,8 C 24,7 C 24,7 C 1,6 C 65 % 71 % 42 % 1014,1 hPa 0,0 l/m 3,2 km/h (1 Bft) O-NO 67 0 min 16,2 C 24,7 C 0,0 km/h (0 Bft)
14.09.2016 10:30 23,2 C 25,2 C 21,8 C 24,6 C 24,6 C 1,4 C 65 % 72 % 37 % 1014,1 hPa 0,0 l/m 2,4 km/h (1 Bft) O 90 0 min 16,2 C 24,6 C 0,0 km/h (0 Bft)
14.09.2016 10:35 23,5 C 25,2 C 21,9 C 24,7 C 24,7 C 1,2 C 65 % 73 % 32 % 1014,1 hPa 0,0 l/m 1,3 km/h (1 Bft) O-NO 67 0 min 16,5 C 24,7 C 3,1 km/h (1 Bft)
14.09.2016 10:40 23,6 C 25,2 C 22,1 C 24,8 C 24,8 C 1,2 C 65 % 72 % 32 % 1014,1 hPa 0,0 l/m 1,3 km/h (1 Bft) O-SO 112 0 min 16,6 C 24,8 C 0,0 km/h (0 Bft)
14.09.2016 10:45 23,8 C 25,2 C 22,4 C 25,0 C 25,0 C 1,2 C 64 % 72 % 32 % 1014,1 hPa 0,0 l/m 1,0 km/h (0 Bft) W 270 0 min 16,6 C 25,0 C 1,8 km/h (1 Bft)
14.09.2016 10:50 24,0 C 25,2 C 22,4 C 25,1 C 25,1 C 1,1 C 64 % 72 % 29 % 1014,1 hPa 0,0 l/m 1,0 km/h (0 Bft) O-NO 67 0 min 16,8 C 25,1 C 2,9 km/h (1 Bft)
14.09.2016 10:55 24,4 C 25,3 C 22,8 C 25,5 C 25,5 C 1,1 C 62 % 70 % 29 % 1014,1 hPa 0,0 l/m 2,3 km/h (1 Bft) O-NO 67 0 min 16,6 C 25,5 C 0,0 km/h (0 Bft)
14.09.2016 11:00 24,8 C 25,3 C 23,0 C 25,8 C 25,8 C 1,0 C 61 % 69 % 26 % 1014,1 hPa 0,0 l/m 2,9 km/h (1 Bft) O-SO 112 0 min 16,8 C 25,8 C 2,7 km/h (1 Bft)
14.09.2016 11:05 25,1 C 25,3 C 23,5 C 26,0 C 26,0 C 0,9 C 59 % 66 % 24 % 1014,2 hPa 0,0 l/m 2,9 km/h (1 Bft) O-NO 67 0 min 16,5 C 26,0 C 9,3 km/h (2 Bft)
14.09.2016 11:10 25,2 C 25,3 C 23,7 C 26,2 C 26,2 C 1,0 C 56 % 66 % 26 % 1014,2 hPa 0,0 l/m 4,5 km/h (1 Bft) NO 45 0 min 15,8 C 26,2 C 8,4 km/h (2 Bft)
14.09.2016 11:15 25,7 C 25,2 C 24,1 C 26,4 C 26,4 C 0,7 C 55 % 63 % 18 % 1014,2 hPa 0,0 l/m 6,0 km/h (2 Bft) O-NO 67 0 min 16,0 C 26,4 C 11,4 km/h (2 Bft)
14.09.2016 11:20 25,8 C 25,2 C 24,3 C 26,6 C 26,6 C 0,8 C 53 % 61 % 21 % 1014,2 hPa 0,0 l/m 6,6 km/h (2 Bft) O-NO 67 0 min 15,5 C 26,6 C 8,2 km/h (2 Bft)
14.09.2016 11:25 26,0 C 25,2 C 24,7 C 26,7 C 26,7 C 0,7 C 52 % 60 % 18 % 1014,1 hPa 0,0 l/m 6,9 km/h (2 Bft) O-NO 67 0 min 15,4 C 26,7 C 6,4 km/h (2 Bft)
14.09.2016 11:30 26,3 C 25,2 C 25,0 C 27,0 C 27,0 C 0,7 C 52 % 60 % 18 % 1014,1 hPa 0,0 l/m 6,4 km/h (2 Bft) O-SO 112 0 min 15,6 C 27,0 C 3,7 km/h (1 Bft)
14.09.2016 11:35 26,5 C 25,2 C 25,2 C 27,2 C 27,2 C 0,7 C 50 % 57 % 18 % 1014,1 hPa 0,0 l/m 5,8 km/h (2 Bft) O-SO 112 0 min 15,2 C 27,2 C 9,5 km/h (2 Bft)
14.09.2016 11:40 26,7 C 25,2 C 25,4 C 27,3 C 27,3 C 0,6 C 51 % 58 % 16 % 1014,1 hPa 0,0 l/m 5,6 km/h (1 Bft) O 90 0 min 15,7 C 27,3 C 6,0 km/h (2 Bft)
14.09.2016 11:45 26,9 C 25,2 C 25,8 C 27,5 C 27,5 C 0,6 C 48 % 55 % 16 % 1014,2 hPa 0,0 l/m 6,3 km/h (2 Bft) O-NO 67 0 min 14,9 C 27,5 C 12,4 km/h (3 Bft)
14.09.2016 11:50 27,0 C 25,3 C 26,5 C 27,6 C 27,6 C 0,6 C 48 % 55 % 16 % 1014,2 hPa 0,0 l/m 6,1 km/h (2 Bft) O-SO 112 0 min 15,0 C 27,6 C 8,7 km/h (2 Bft)
14.09.2016 11:55 27,1 C 25,3 C 26,5 C 27,6 C 27,6 C 0,5 C 48 % 54 % 13 % 1014,2 hPa 0,0 l/m 5,8 km/h (2 Bft) O-NO 67 0 min 15,1 C 27,6 C 4,5 km/h (1 Bft)
14.09.2016 12:00 27,2 C 25,3 C 27,1 C 27,7 C 27,7 C 0,5 C 47 % 51 % 13 % 1014,2 hPa 0,0 l/m 6,1 km/h (2 Bft) O 90 0 min 14,9 C 27,7 C 8,5 km/h (2 Bft)
14.09.2016 12:05 27,2 C 25,3 C 27,1 C 27,7 C 27,7 C 0,5 C 46 % 50 % 13 % 1014,2 hPa 0,0 l/m 6,9 km/h (2 Bft) O-SO 112 0 min 14,6 C 27,7 C 6,9 km/h (2 Bft)
14.09.2016 12:12 27,4 C 25,3 C 27,1 C 27,9 C 27,9 C 0,5 C 45 % 48 % 13 % 1014,2 hPa 0,0 l/m 8,5 km/h (2 Bft) N 0 0 min 14,4 C 27,9 C 16,9 km/h (3 Bft)
14.09.2016 12:20 27,5 C 25,3 C 28,1 C 27,9 C 27,9 C 0,4 C 45 % 47 % 11 % 1014,2 hPa 0,0 l/m 8,9 km/h (2 Bft) NO 45 0 min 14,5 C 27,9 C 12,2 km/h (2 Bft)
14.09.2016 12:25 27,6 C 25,2 C 28,9 C 28,2 C 28,2 C 0,6 C 42 % 44 % 16 % 1013,9 hPa 0,0 l/m 9,0 km/h (2 Bft) O-NO 67 0 min 13,5 C 28,2 C 8,7 km/h (2 Bft)
14.09.2016 12:30 27,7 C 25,2 C 28,5 C 29,0 C 29,0 C 1,3 C 43 % 45 % 34 % 1013,9 hPa 0,0 l/m 8,7 km/h (2 Bft) O-NO 67 0 min 14,0 C 29,0 C 6,4 km/h (2 Bft)
14.09.2016 12:35 27,8 C 25,2 C 27,9 C 30,3 C 30,3 C 2,5 C 43 % 46 % 66 % 1013,9 hPa 0,0 l/m 7,7 km/h (2 Bft) O-NO 67 0 min 14,1 C 30,3 C 15,9 km/h (3 Bft)
14.09.2016 12:40 27,7 C 25,3 C 27,6 C 30,5 C 30,5 C 2,8 C 44 % 46 % 74 % 1013,9 hPa 0,0 l/m 8,5 km/h (2 Bft) O-NO 67 0 min 14,3 C 30,5 C 10,8 km/h (2 Bft)
14.09.2016 12:45 27,9 C 25,3 C 27,3 C 30,9 C 30,9 C 3,0 C 44 % 48 % 79 % 1014,5 hPa 0,0 l/m 7,7 km/h (2 Bft) O-NO 67 0 min 14,5 C 30,9 C 11,9 km/h (2 Bft)
14.09.2016 12:50 27,9 C 25,3 C 27,2 C 31,0 C 31,0 C 3,1 C 44 % 48 % 82 % 1014,5 hPa 0,0 l/m 6,9 km/h (2 Bft) O-NO 67 0 min 14,5 C 31,0 C 6,1 km/h (2 Bft)
14.09.2016 12:55 28,0 C 25,3 C 27,3 C 31,3 C 31,3 C 3,3 C 45 % 49 % 87 % 1014,5 hPa 0,0 l/m 7,4 km/h (2 Bft) O-NO 67 5 min 14,9 C 31,3 C 9,0 km/h (2 Bft)
14.09.2016 13:00 28,0 C 25,3 C 27,5 C 31,5 C 31,5 C 3,5 C 44 % 48 % 92 % 1014,5 hPa 0,0 l/m 7,1 km/h (2 Bft) O-NO 67 5 min 14,6 C 31,5 C 12,2 km/h (2 Bft)
14.09.2016 13:05 28,2 C 25,3 C 27,5 C 31,6 C 31,6 C 3,4 C 45 % 50 % 89 % 1014,0 hPa 0,0 l/m 6,4 km/h (2 Bft) O-NO 67 5 min 15,1 C 31,6 C 6,8 km/h (2 Bft)
14.09.2016 13:10 28,3 C 25,3 C 27,4 C 31,7 C 31,7 C 3,4 C 45 % 50 % 89 % 1014,0 hPa 0,0 l/m 6,6 km/h (2 Bft) O-NO 67 5 min 15,2 C 31,7 C 7,4 km/h (2 Bft)
14.09.2016 13:15 28,3 C 25,3 C 27,6 C 31,8 C 31,8 C 3,5 C 44 % 49 % 92 % 1014,0 hPa 0,0 l/m 6,0 km/h (2 Bft) O 90 5 min 14,9 C 31,8 C 3,4 km/h (1 Bft)
14.09.2016 13:20 28,2 C 25,4 C 27,5 C 31,4 C 31,4 C 3,2 C 45 % 49 % 84 % 1014,0 hPa 0,0 l/m 5,6 km/h (1 Bft) O-NO 67 0 min 15,1 C 31,4 C 8,0 km/h (2 Bft)
14.09.2016 13:25 28,0 C 25,4 C 27,3 C 30,8 C 30,8 C 2,8 C 44 % 49 % 74 % 1014,1 hPa 0,0 l/m 6,9 km/h (2 Bft) O-NO 67 0 min 14,6 C 30,8 C 10,0 km/h (2 Bft)
14.09.2016 13:30 28,0 C 25,4 C 27,2 C 30,5 C 30,5 C 2,5 C 45 % 50 % 66 % 1014,1 hPa 0,0 l/m 7,4 km/h (2 Bft) O-NO 67 0 min 14,9 C 30,5 C 6,9 km/h (2 Bft)
14.09.2016 13:35 28,0 C 25,4 C 27,5 C 30,8 C 30,8 C 2,8 C 46 % 51 % 74 % 1014,1 hPa 0,0 l/m 6,0 km/h (2 Bft) O-NO 67 0 min 15,3 C 30,8 C 5,8 km/h (2 Bft)
14.09.2016 13:40 28,1 C 25,4 C 27,5 C 30,8 C 30,8 C 2,7 C 46 % 51 % 71 % 1014,1 hPa 0,0 l/m 5,3 km/h (1 Bft) O-NO 67 0 min 15,4 C 30,8 C 9,5 km/h (2 Bft)
14.09.2016 13:45 28,0 C 25,4 C 27,6 C 31,0 C 31,0 C 3,0 C 46 % 51 % 79 % 1013,8 hPa 0,0 l/m 6,6 km/h (2 Bft) O-NO 67 0 min 15,3 C 31,0 C 10,6 km/h (2 Bft)
14.09.2016 13:50 28,0 C 25,4 C 27,5 C 31,0 C 31,0 C 3,0 C 46 % 50 % 79 % 1013,8 hPa 0,0 l/m 7,7 km/h (2 Bft) O-NO 67 0 min 15,3 C 31,0 C 6,4 km/h (2 Bft)
14.09.2016 13:55 27,9 C 25,4 C 27,3 C 30,2 C 30,2 C 2,3 C 46 % 51 % 61 % 1013,8 hPa 0,0 l/m 6,9 km/h (2 Bft) O-NO 67 0 min 15,2 C 30,2 C 6,6 km/h (2 Bft)
14.09.2016 14:00 28,1 C 25,4 C 27,5 C 31,0 C 31,0 C 2,9 C 47 % 52 % 76 % 1013,8 hPa 0,0 l/m 6,1 km/h (2 Bft) O-NO 67 0 min 15,7 C 31,0 C 8,4 km/h (2 Bft)
14.09.2016 14:05 28,2 C 25,5 C 27,6 C 32,0 C 32,0 C 3,8 C 46 % 51 % 100 % 1014,3 hPa 0,0 l/m 5,3 km/h (1 Bft) O-NO 67 5 min 15,5 C 32,0 C 4,8 km/h (1 Bft)
14.09.2016 14:12 28,4 C 25,5 C 27,7 C 32,4 C 32,4 C 4,0 C 46 % 51 % 100 % 1014,3 hPa 0,0 l/m 5,5 km/h (1 Bft) N 0 7 min 15,6 C 32,4 C 5,5 km/h (1 Bft)
14.09.2016 14:20 28,5 C 25,5 C 27,9 C 32,1 C 32,1 C 3,6 C 46 % 50 % 95 % 1014,3 hPa 0,0 l/m 6,8 km/h (2 Bft) O 90 8 min 15,7 C 32,1 C 8,4 km/h (2 Bft)
14.09.2016 14:25 28,6 C 25,5 C 27,9 C 32,3 C 32,3 C 3,7 C 44 % 50 % 97 % 1013,9 hPa 0,0 l/m 6,1 km/h (2 Bft) O-SO 112 5 min 15,1 C 32,3 C 9,2 km/h (2 Bft)
14.09.2016 14:30 28,5 C 25,5 C 27,8 C 32,1 C 32,1 C 3,6 C 44 % 49 % 95 % 1013,9 hPa 0,0 l/m 6,4 km/h (2 Bft) O-NO 67 5 min 15,0 C 32,1 C 10,0 km/h (2 Bft)
14.09.2016 14:35 28,5 C 25,5 C 27,8 C 32,0 C 32,0 C 3,5 C 44 % 49 % 92 % 1013,9 hPa 0,0 l/m 6,9 km/h (2 Bft) O-NO 67 5 min 15,0 C 32,0 C 10,8 km/h (2 Bft)
14.09.2016 14:40 28,4 C 25,6 C 27,6 C 31,5 C 31,5 C 3,1 C 43 % 48 % 82 % 1013,9 hPa 0,0 l/m 7,6 km/h (2 Bft) O-NO 67 0 min 14,6 C 31,5 C 6,0 km/h (2 Bft)
14.09.2016 14:45 28,2 C 25,6 C 27,3 C 29,9 C 29,9 C 1,7 C 44 % 49 % 45 % 1013,2 hPa 0,0 l/m 7,6 km/h (2 Bft) O-NO 67 0 min 14,8 C 29,9 C 6,6 km/h (2 Bft)
14.09.2016 14:50 28,1 C 25,6 C 27,3 C 29,7 C 29,7 C 1,6 C 44 % 49 % 42 % 1013,2 hPa 0,0 l/m 7,2 km/h (2 Bft) O-NO 67 0 min 14,7 C 29,7 C 9,3 km/h (2 Bft)
14.09.2016 14:55 28,1 C 25,6 C 27,3 C 30,2 C 30,2 C 2,1 C 44 % 49 % 55 % 1013,2 hPa 0,0 l/m 7,7 km/h (2 Bft) O-NO 67 0 min 14,7 C 30,2 C 10,0 km/h (2 Bft)
14.09.2016 15:00 28,3 C 25,6 C 27,5 C 30,3 C 30,3 C 2,0 C 44 % 49 % 53 % 1013,2 hPa 0,0 l/m 7,7 km/h (2 Bft) N-NO 22 0 min 14,9 C 30,3 C 7,9 km/h (2 Bft)
14.09.2016 15:05 28,3 C 25,6 C 27,6 C 30,8 C 30,8 C 2,5 C 43 % 49 % 66 % 1013,5 hPa 0,0 l/m 7,9 km/h (2 Bft) O-NO 67 0 min 14,5 C 30,8 C 7,7 km/h (2 Bft)
14.09.2016 15:10 28,4 C 25,6 C 27,6 C 31,2 C 31,2 C 2,8 C 43 % 47 % 74 % 1013,5 hPa 0,0 l/m 7,6 km/h (2 Bft) O-NO 67 0 min 14,6 C 31,2 C 6,8 km/h (2 Bft)
14.09.2016 15:15 28,5 C 25,7 C 27,8 C 31,7 C 31,7 C 3,2 C 43 % 47 % 84 % 1013,5 hPa 0,0 l/m 7,6 km/h (2 Bft) O-NO 67 0 min 14,7 C 31,7 C 11,4 km/h (2 Bft)
14.09.2016 15:20 28,5 C 25,7 C 27,8 C 31,7 C 31,7 C 3,2 C 43 % 48 % 84 % 1013,5 hPa 0,0 l/m 7,6 km/h (2 Bft) O 90 0 min 14,7 C 31,7 C 11,1 km/h (2 Bft)
14.09.2016 15:25 28,5 C 25,7 C 27,6 C 31,2 C 31,2 C 2,7 C 43 % 47 % 71 % 1013,5 hPa 0,0 l/m 9,0 km/h (2 Bft) NO 45 0 min 14,7 C 31,2 C 9,5 km/h (2 Bft)
14.09.2016 15:30 28,3 C 25,7 C 27,5 C 30,6 C 30,6 C 2,3 C 43 % 47 % 61 % 1013,5 hPa 0,0 l/m 9,2 km/h (2 Bft) O-NO 67 0 min 14,5 C 30,6 C 16,1 km/h (3 Bft)
14.09.2016 15:35 28,3 C 25,7 C 27,7 C 30,2 C 30,2 C 1,9 C 43 % 47 % 50 % 1013,5 hPa 0,0 l/m 9,0 km/h (2 Bft) O-NO 67 0 min 14,5 C 30,2 C 9,2 km/h (2 Bft)
14.09.2016 15:40 28,4 C 25,7 C 27,7 C 30,8 C 30,8 C 2,4 C 44 % 47 % 63 % 1013,5 hPa 0,0 l/m 7,4 km/h (2 Bft) N-NW 337 0 min 14,9 C 30,8 C 2,1 km/h (1 Bft)
14.09.2016 15:45 28,4 C 25,7 C 27,7 C 31,3 C 31,3 C 2,9 C 43 % 48 % 76 % 1013,6 hPa 0,0 l/m 5,3 km/h (1 Bft) O-SO 112 0 min 14,6 C 31,3 C 7,9 km/h (2 Bft)
14.09.2016 15:50 28,4 C 25,7 C 27,7 C 31,2 C 31,2 C 2,8 C 44 % 48 % 74 % 1013,6 hPa 0,0 l/m 5,0 km/h (1 Bft) O-NO 67 0 min 14,9 C 31,2 C 4,3 km/h (1 Bft)
14.09.2016 15:55 28,5 C 25,8 C 27,9 C 31,0 C 31,0 C 2,5 C 43 % 48 % 66 % 1013,6 hPa 0,0 l/m 7,4 km/h (2 Bft) SW 225 0 min 14,7 C 31,0 C 10,8 km/h (2 Bft)
14.09.2016 16:00 28,7 C 25,8 C 27,9 C 31,2 C 31,2 C 2,5 C 43 % 47 % 66 % 1013,6 hPa 0,0 l/m 8,0 km/h (2 Bft) O-NO 67 0 min 14,9 C 31,2 C 6,8 km/h (2 Bft)
14.09.2016 16:05 28,5 C 25,8 C 27,6 C 30,8 C 30,8 C 2,3 C 43 % 48 % 61 % 1013,1 hPa 0,0 l/m 7,1 km/h (2 Bft) NO 45 0 min 14,7 C 30,8 C 7,1 km/h (2 Bft)
14.09.2016 16:12 28,6 C 25,8 C 27,9 C 31,5 C 31,5 C 2,9 C 42 % 47 % 76 % 1013,1 hPa 0,0 l/m 6,4 km/h (2 Bft) N 0 0 min 14,4 C 31,5 C 10,3 km/h (2 Bft)
14.09.2016 16:20 28,7 C 25,8 C 27,9 C 31,5 C 31,5 C 2,8 C 41 % 47 % 74 % 1013,1 hPa 0,0 l/m 7,1 km/h (2 Bft) O 90 0 min 14,1 C 31,5 C 13,5 km/h (3 Bft)
14.09.2016 16:25 28,5 C 25,8 C 27,7 C 31,1 C 31,1 C 2,6 C 43 % 48 % 68 % 1013,2 hPa 0,0 l/m 7,9 km/h (2 Bft) O-NO 67 0 min 14,7 C 31,1 C 7,2 km/h (2 Bft)
14.09.2016 16:30 28,5 C 25,8 C 27,7 C 31,1 C 31,1 C 2,6 C 41 % 48 % 68 % 1013,2 hPa 0,0 l/m 7,6 km/h (2 Bft) NO 45 0 min 13,9 C 31,1 C 7,2 km/h (2 Bft)
14.09.2016 16:35 28,6 C 25,8 C 27,7 C 31,3 C 31,3 C 2,7 C 43 % 48 % 71 % 1013,2 hPa 0,0 l/m 6,3 km/h (2 Bft) O 90 0 min 14,8 C 31,3 C 10,6 km/h (2 Bft)
14.09.2016 16:40 28,6 C 25,8 C 27,7 C 31,1 C 31,1 C 2,5 C 43 % 48 % 66 % 1013,2 hPa 0,0 l/m 6,4 km/h (2 Bft) O-NO 67 0 min 14,8 C 31,1 C 4,2 km/h (1 Bft)
14.09.2016 16:45 28,5 C 25,9 C 27,6 C 30,9 C 30,9 C 2,4 C 43 % 48 % 63 % 1013,0 hPa 0,0 l/m 6,1 km/h (2 Bft) NO 45 0 min 14,7 C 30,9 C 9,5 km/h (2 Bft)
14.09.2016 16:50 28,5 C 25,9 C 27,8 C 31,0 C 31,0 C 2,5 C 43 % 48 % 66 % 1013,0 hPa 0,0 l/m 5,1 km/h (1 Bft) O 90 0 min 14,7 C 31,0 C 4,7 km/h (1 Bft)
14.09.2016 16:55 28,5 C 25,9 C 27,7 C 31,0 C 31,0 C 2,5 C 43 % 49 % 66 % 1013,0 hPa 0,0 l/m 5,3 km/h (1 Bft) O-NO 67 0 min 14,7 C 31,0 C 7,7 km/h (2 Bft)
14.09.2016 17:00 28,4 C 25,9 C 27,6 C 31,0 C 31,0 C 2,6 C 45 % 49 % 68 % 1013,0 hPa 0,0 l/m 5,6 km/h (1 Bft) O 90 0 min 15,3 C 31,0 C 8,7 km/h (2 Bft)
14.09.2016 17:05 28,3 C 25,9 C 27,7 C 30,5 C 30,5 C 2,2 C 47 % 50 % 58 % 1013,1 hPa 0,0 l/m 6,9 km/h (2 Bft) O-SO 112 0 min 15,9 C 30,5 C 13,4 km/h (3 Bft)
14.09.2016 17:10 28,3 C 25,9 C 27,7 C 30,4 C 30,4 C 2,1 C 48 % 51 % 55 % 1013,1 hPa 0,0 l/m 7,1 km/h (2 Bft) O-NO 67 0 min 16,2 C 30,4 C 7,2 km/h (2 Bft)
14.09.2016 17:15 28,0 C 25,9 C 27,6 C 30,2 C 30,2 C 2,2 C 48 % 51 % 58 % 1013,1 hPa 0,0 l/m 7,6 km/h (2 Bft) O-NO 67 0 min 15,9 C 30,2 C 12,1 km/h (2 Bft)
14.09.2016 17:20 27,9 C 25,9 C 27,3 C 29,5 C 29,5 C 1,6 C 49 % 52 % 42 % 1013,1 hPa 0,0 l/m 7,4 km/h (2 Bft) O-NO 67 0 min 16,2 C 29,5 C 6,8 km/h (2 Bft)
14.09.2016 17:25 27,8 C 25,9 C 27,3 C 28,6 C 28,6 C 0,8 C 50 % 53 % 21 % 1013,2 hPa 0,0 l/m 7,1 km/h (2 Bft) O 90 0 min 16,4 C 28,6 C 8,4 km/h (2 Bft)
14.09.2016 17:30 27,7 C 26,0 C 27,1 C 28,2 C 28,2 C 0,5 C 50 % 53 % 13 % 1013,2 hPa 0,0 l/m 7,4 km/h (2 Bft) O-NO 67 0 min 16,3 C 28,2 C 11,7 km/h (2 Bft)
14.09.2016 17:35 27,7 C 26,0 C 27,0 C 27,9 C 27,9 C 0,2 C 50 % 54 % 5 % 1013,2 hPa 0,0 l/m 7,7 km/h (2 Bft) O-SO 112 0 min 16,3 C 27,9 C 5,0 km/h (1 Bft)
14.09.2016 17:40 27,5 C 26,0 C 26,8 C 27,6 C 27,6 C 0,1 C 51 % 55 % 3 % 1013,2 hPa 0,0 l/m 7,2 km/h (2 Bft) O-NO 67 0 min 16,4 C 27,6 C 7,9 km/h (2 Bft)
14.09.2016 17:45 27,3 C 26,0 C 26,5 C 27,3 C 27,3 C 0,0 C 52 % 56 % 0 % 1013,0 hPa 0,0 l/m 6,0 km/h (2 Bft) O 90 0 min 16,6 C 27,3 C 4,7 km/h (1 Bft)
14.09.2016 17:50 27,2 C 26,0 C 26,6 C 27,2 C 27,2 C 0,0 C 52 % 56 % 0 % 1013,0 hPa 0,0 l/m 6,4 km/h (2 Bft) O-NO 67 0 min 16,5 C 27,2 C 10,3 km/h (2 Bft)
14.09.2016 17:55 27,3 C 26,0 C 26,7 C 27,3 C 27,2 C 0,0 C 52 % 56 % 0 % 1013,0 hPa 0,0 l/m 8,0 km/h (2 Bft) O 90 0 min 16,6 C 27,2 C 12,1 km/h (2 Bft)
14.09.2016 18:00 27,2 C 26,0 C 26,7 C 27,2 C 27,1 C 0,0 C 53 % 56 % 0 % 1013,0 hPa 0,0 l/m 7,9 km/h (2 Bft) NO 45 0 min 16,8 C 27,1 C 5,3 km/h (1 Bft)
14.09.2016 18:05 27,1 C 26,0 C 26,4 C 27,1 C 27,1 C 0,0 C 53 % 57 % 0 % 1013,2 hPa 0,0 l/m 6,6 km/h (2 Bft) SO 135 0 min 16,7 C 27,1 C 11,3 km/h (2 Bft)
14.09.2016 18:12 26,9 C 26,0 C 26,3 C 26,9 C 26,9 C 0,0 C 54 % 57 % 0 % 1013,2 hPa 0,0 l/m 8,7 km/h (2 Bft) N 0 0 min 16,8 C 26,9 C 12,6 km/h (3 Bft)
14.09.2016 18:20 26,8 C 26,0 C 26,2 C 26,8 C 26,8 C 0,0 C 54 % 58 % 0 % 1013,2 hPa 0,0 l/m 9,2 km/h (2 Bft) O 90 0 min 16,7 C 26,8 C 10,9 km/h (2 Bft)
14.09.2016 18:25 26,8 C 26,1 C 26,2 C 26,7 C 26,6 C 0,0 C 54 % 58 % 0 % 1013,2 hPa 0,0 l/m 8,0 km/h (2 Bft) O-NO 67 0 min 16,7 C 26,6 C 5,0 km/h (1 Bft)
14.09.2016 18:30 26,7 C 26,1 C 26,0 C 26,6 C 26,4 C 0,0 C 55 % 59 % 0 % 1013,2 hPa 0,0 l/m 6,3 km/h (2 Bft) NO 45 0 min 16,9 C 26,4 C 5,1 km/h (1 Bft)
14.09.2016 18:35 26,5 C 26,1 C 25,8 C 26,4 C 26,2 C 0,0 C 55 % 59 % 0 % 1013,2 hPa 0,0 l/m 6,1 km/h (2 Bft) O-SO 112 0 min 16,7 C 26,2 C 8,2 km/h (2 Bft)
14.09.2016 18:40 26,5 C 26,1 C 25,8 C 26,4 C 26,1 C 0,0 C 55 % 59 % 0 % 1013,2 hPa 0,0 l/m 6,4 km/h (2 Bft) O-NO 67 0 min 16,7 C 26,1 C 7,2 km/h (2 Bft)
14.09.2016 18:45 26,3 C 26,1 C 25,7 C 26,2 C 25,9 C 0,0 C 56 % 60 % 0 % 1013,0 hPa 0,0 l/m 6,6 km/h (2 Bft) O-NO 67 0 min 16,8 C 25,9 C 8,0 km/h (2 Bft)
14.09.2016 18:50 26,1 C 26,1 C 25,5 C 26,0 C 25,7 C 0,0 C 56 % 60 % 0 % 1013,0 hPa 0,0 l/m 6,8 km/h (2 Bft) O 90 0 min 16,6 C 25,7 C 7,2 km/h (2 Bft)
14.09.2016 18:55 26,1 C 26,1 C 25,3 C 25,9 C 25,5 C 0,0 C 56 % 60 % 0 % 1013,0 hPa 0,0 l/m 7,4 km/h (2 Bft) O-NO 67 0 min 16,6 C 25,5 C 7,1 km/h (2 Bft)
14.09.2016 19:00 25,8 C 26,1 C 25,2 C 25,6 C 25,3 C 0,0 C 56 % 60 % 0 % 1013,0 hPa 0,0 l/m 7,4 km/h (2 Bft) NO 45 0 min 16,3 C 25,3 C 9,3 km/h (2 Bft)
14.09.2016 19:05 25,7 C 26,1 C 25,1 C 25,5 C 25,2 C 0,0 C 56 % 60 % 0 % 1013,1 hPa 0,0 l/m 7,9 km/h (2 Bft) NO 45 0 min 16,2 C 25,2 C 6,9 km/h (2 Bft)
14.09.2016 19:10 25,6 C 26,1 C 25,1 C 25,4 C 25,1 C 0,0 C 56 % 60 % 0 % 1013,1 hPa 0,0 l/m 8,4 km/h (2 Bft) O-NO 67 0 min 16,2 C 25,1 C 8,5 km/h (2 Bft)
14.09.2016 19:15 25,5 C 26,1 C 24,8 C 25,3 C 25,0 C 0,0 C 56 % 60 % 0 % 1013,1 hPa 0,0 l/m 7,7 km/h (2 Bft) O-NO 67 0 min 16,1 C 25,0 C 7,7 km/h (2 Bft)
14.09.2016 19:20 25,5 C 26,1 C 24,7 C 25,3 C 24,8 C 0,0 C 57 % 61 % 0 % 1013,1 hPa 0,0 l/m 7,2 km/h (2 Bft) O-SO 112 0 min 16,3 C 24,8 C 7,1 km/h (2 Bft)
14.09.2016 19:25 25,2 C 26,1 C 24,5 C 25,0 C 24,6 C 0,0 C 57 % 61 % 0 % 1013,2 hPa 0,0 l/m 7,2 km/h (2 Bft) O-SO 112 0 min 16,1 C 24,6 C 6,1 km/h (2 Bft)
14.09.2016 19:30 25,1 C 26,1 C 24,5 C 24,9 C 24,4 C 0,0 C 57 % 61 % 0 % 1013,2 hPa 0,0 l/m 6,9 km/h (2 Bft) O-NO 67 0 min 16,0 C 24,4 C 6,6 km/h (2 Bft)
14.09.2016 19:35 24,9 C 26,2 C 24,2 C 24,7 C 24,2 C 0,0 C 57 % 61 % 0 % 1013,2 hPa 0,0 l/m 6,1 km/h (2 Bft) O-NO 67 0 min 15,8 C 24,2 C 8,2 km/h (2 Bft)
14.09.2016 19:40 24,9 C 26,2 C 24,1 C 24,6 C 24,0 C 0,0 C 58 % 62 % 0 % 1013,2 hPa 0,0 l/m 5,5 km/h (1 Bft) O-SO 112 0 min 16,1 C 24,0 C 7,2 km/h (2 Bft)
14.09.2016 19:45 24,7 C 26,2 C 23,9 C 24,4 C 23,8 C 0,0 C 58 % 62 % 0 % 1013,6 hPa 0,0 l/m 6,0 km/h (2 Bft) O-NO 67 0 min 15,9 C 23,8 C 8,0 km/h (2 Bft)
14.09.2016 19:50 24,5 C 26,2 C 23,8 C 24,3 C 23,8 C 0,0 C 58 % 62 % 0 % 1013,6 hPa 0,0 l/m 6,0 km/h (2 Bft) O-SO 112 0 min 15,7 C 23,8 C 5,3 km/h (1 Bft)
14.09.2016 19:55 24,4 C 26,2 C 23,6 C 24,1 C 23,6 C 0,0 C 58 % 62 % 0 % 1013,6 hPa 0,0 l/m 6,0 km/h (2 Bft) NO 45 0 min 15,6 C 23,6 C 7,6 km/h (2 Bft)
14.09.2016 20:00 24,3 C 26,2 C 23,5 C 24,0 C 23,4 C 0,0 C 58 % 62 % 0 % 1013,6 hPa 0,0 l/m 5,6 km/h (1 Bft) O-NO 67 0 min 15,5 C 23,4 C 8,5 km/h (2 Bft)
14.09.2016 20:05 24,1 C 26,2 C 23,3 C 23,8 C 23,3 C 0,0 C 57 % 61 % 0 % 1013,7 hPa 0,0 l/m 6,0 km/h (2 Bft) O-NO 67 0 min 15,0 C 23,3 C 6,9 km/h (2 Bft)
14.09.2016 20:12 23,9 C 26,2 C 23,1 C 23,6 C 23,1 C 0,0 C 57 % 61 % 0 % 1013,7 hPa 0,0 l/m 6,1 km/h (2 Bft) N 0 0 min 14,9 C 23,1 C 5,5 km/h (1 Bft)
14.09.2016 20:20 23,8 C 26,2 C 23,1 C 23,5 C 23,0 C 0,0 C 57 % 62 % 0 % 1013,7 hPa 0,0 l/m 5,8 km/h (2 Bft) O-NO 67 0 min 14,8 C 23,0 C 9,0 km/h (2 Bft)
14.09.2016 20:25 23,7 C 26,2 C 22,8 C 23,4 C 22,9 C 0,0 C 57 % 62 % 0 % 1014,1 hPa 0,0 l/m 5,5 km/h (1 Bft) NO 45 0 min 14,7 C 22,9 C 8,2 km/h (2 Bft)
14.09.2016 20:30 23,6 C 26,2 C 22,8 C 23,3 C 22,8 C 0,0 C 57 % 62 % 0 % 1014,1 hPa 0,0 l/m 5,3 km/h (1 Bft) O-SO 112 0 min 14,6 C 22,8 C 6,4 km/h (2 Bft)
14.09.2016 20:35 23,5 C 26,2 C 22,7 C 23,2 C 22,7 C 0,0 C 57 % 62 % 0 % 1014,1 hPa 0,0 l/m 5,5 km/h (1 Bft) O-NO 67 0 min 14,5 C 22,7 C 8,0 km/h (2 Bft)
14.09.2016 20:40 23,4 C 26,2 C 22,7 C 23,1 C 22,6 C 0,0 C 57 % 62 % 0 % 1014,1 hPa 0,0 l/m 5,3 km/h (1 Bft) O-NO 67 0 min 14,4 C 22,6 C 5,0 km/h (1 Bft)
14.09.2016 20:45 23,3 C 26,2 C 22,5 C 23,0 C 22,5 C 0,0 C 57 % 62 % 0 % 1014,4 hPa 0,0 l/m 4,8 km/h (1 Bft) O-NO 67 0 min 14,3 C 22,5 C 6,1 km/h (2 Bft)
14.09.2016 20:50 23,3 C 26,2 C 22,4 C 23,0 C 22,3 C 0,0 C 57 % 62 % 0 % 1014,4 hPa 0,0 l/m 4,5 km/h (1 Bft) O 90 0 min 14,3 C 22,3 C 3,9 km/h (1 Bft)
14.09.2016 20:55 23,1 C 26,2 C 22,2 C 22,8 C 22,2 C 0,0 C 58 % 63 % 0 % 1014,4 hPa 0,0 l/m 4,7 km/h (1 Bft) O 90 0 min 14,4 C 22,2 C 6,4 km/h (2 Bft)
14.09.2016 21:00 23,1 C 26,2 C 22,2 C 22,8 C 22,1 C 0,0 C 58 % 63 % 0 % 1014,4 hPa 0,0 l/m 4,8 km/h (1 Bft) O-NO 67 0 min 14,4 C 22,1 C 7,2 km/h (2 Bft)
14.09.2016 21:05 22,9 C 26,2 C 22,0 C 22,6 C 22,1 C 0,0 C 58 % 62 % 0 % 1014,3 hPa 0,0 l/m 5,1 km/h (1 Bft) NO 45 0 min 14,2 C 22,1 C 7,2 km/h (2 Bft)
14.09.2016 21:10 22,8 C 26,2 C 22,0 C 22,5 C 21,9 C 0,0 C 58 % 63 % 0 % 1014,3 hPa 0,0 l/m 5,1 km/h (1 Bft) O 90 0 min 14,1 C 21,9 C 5,3 km/h (1 Bft)
14.09.2016 21:15 22,7 C 26,3 C 21,9 C 22,4 C 21,8 C 0,0 C 58 % 63 % 0 % 1014,3 hPa 0,0 l/m 4,8 km/h (1 Bft) O-NO 67 0 min 14,0 C 21,8 C 7,1 km/h (2 Bft)
14.09.2016 21:20 22,7 C 26,3 C 21,7 C 22,4 C 21,7 C 0,0 C 58 % 63 % 0 % 1014,3 hPa 0,0 l/m 4,7 km/h (1 Bft) O-NO 67 0 min 14,0 C 21,7 C 4,5 km/h (1 Bft)
14.09.2016 21:25 22,4 C 26,3 C 21,6 C 22,1 C 21,6 C 0,0 C 59 % 63 % 0 % 1014,3 hPa 0,0 l/m 4,3 km/h (1 Bft) O-NO 67 0 min 14,0 C 21,6 C 6,0 km/h (2 Bft)
14.09.2016 21:30 22,3 C 26,3 C 21,4 C 22,0 C 21,5 C 0,0 C 59 % 64 % 0 % 1014,3 hPa 0,0 l/m 4,3 km/h (1 Bft) O-NO 67 0 min 13,9 C 21,5 C 4,2 km/h (1 Bft)
14.09.2016 21:35 22,3 C 26,3 C 21,2 C 22,0 C 21,3 C 0,0 C 59 % 64 % 0 % 1014,3 hPa 0,0 l/m 3,7 km/h (1 Bft) O 90 0 min 13,9 C 21,3 C 4,5 km/h (1 Bft)
14.09.2016 21:40 22,0 C 26,3 C 21,1 C 21,7 C 21,2 C 0,0 C 59 % 65 % 0 % 1014,3 hPa 0,0 l/m 3,4 km/h (1 Bft) O-NO 67 0 min 13,6 C 21,2 C 5,3 km/h (1 Bft)
14.09.2016 21:45 22,0 C 26,2 C 21,1 C 21,7 C 21,1 C 0,0 C 59 % 65 % 0 % 1014,4 hPa 0,0 l/m 4,7 km/h (1 Bft) O-NO 67 0 min 13,6 C 21,1 C 6,6 km/h (2 Bft)
14.09.2016 21:50 21,9 C 26,2 C 21,1 C 21,6 C 21,1 C 0,0 C 60 % 65 % 0 % 1014,4 hPa 0,0 l/m 5,0 km/h (1 Bft) O-NO 67 0 min 13,8 C 21,1 C 3,4 km/h (1 Bft)
14.09.2016 21:55 21,9 C 26,2 C 21,1 C 21,6 C 21,0 C 0,0 C 60 % 64 % 0 % 1014,4 hPa 0,0 l/m 4,8 km/h (1 Bft) O-NO 67 0 min 13,8 C 21,0 C 6,1 km/h (2 Bft)
14.09.2016 22:00 21,9 C 26,2 C 21,0 C 21,6 C 21,0 C 0,0 C 59 % 64 % 0 % 1014,4 hPa 0,0 l/m 5,0 km/h (1 Bft) O-SO 112 0 min 13,5 C 21,0 C 4,3 km/h (1 Bft)
14.09.2016 22:05 21,7 C 26,2 C 21,0 C 21,4 C 20,9 C 0,0 C 60 % 64 % 0 % 1014,6 hPa 0,0 l/m 4,5 km/h (1 Bft) O-NO 67 0 min 13,6 C 20,9 C 5,8 km/h (2 Bft)
14.09.2016 22:12 21,5 C 26,2 C 20,7 C 21,2 C 20,7 C 0,0 C 60 % 65 % 0 % 1014,6 hPa 0,0 l/m 3,7 km/h (1 Bft) N 0 0 min 13,4 C 20,7 C 4,5 km/h (1 Bft)
14.09.2016 22:20 21,4 C 26,2 C 20,6 C 21,1 C 20,6 C 0,0 C 60 % 65 % 0 % 1014,6 hPa 0,0 l/m 4,0 km/h (1 Bft) NO 45 0 min 13,3 C 20,6 C 5,0 km/h (1 Bft)
14.09.2016 22:25 21,3 C 26,2 C 20,4 C 21,0 C 20,5 C 0,0 C 60 % 65 % 0 % 1014,4 hPa 0,0 l/m 4,2 km/h (1 Bft) O-NO 67 0 min 13,2 C 20,5 C 4,0 km/h (1 Bft)
14.09.2016 22:30 21,2 C 26,2 C 20,4 C 20,9 C 20,4 C 0,0 C 60 % 65 % 0 % 1014,4 hPa 0,0 l/m 4,0 km/h (1 Bft) O-NO 67 0 min 13,1 C 20,4 C 4,0 km/h (1 Bft)
14.09.2016 22:35 21,1 C 26,2 C 20,3 C 20,8 C 20,3 C 0,0 C 60 % 65 % 0 % 1014,4 hPa 0,0 l/m 3,2 km/h (1 Bft) O 90 0 min 13,0 C 20,3 C 2,1 km/h (1 Bft)
14.09.2016 22:40 21,0 C 26,2 C 20,2 C 20,7 C 20,1 C 0,0 C 60 % 65 % 0 % 1014,4 hPa 0,0 l/m 2,6 km/h (1 Bft) O-NO 67 0 min 12,9 C 20,1 C 4,0 km/h (1 Bft)
14.09.2016 22:45 20,8 C 26,2 C 20,0 C 20,5 C 19,8 C 0,0 C 60 % 66 % 0 % 1014,6 hPa 0,0 l/m 1,0 km/h (0 Bft) O-NO 67 0 min 12,7 C 19,8 C 0,0 km/h (0 Bft)
14.09.2016 22:50 20,6 C 26,2 C 19,9 C 20,3 C 19,6 C 0,0 C 61 % 66 % 0 % 1014,6 hPa 0,0 l/m 1,3 km/h (1 Bft) O-SO 112 0 min 12,8 C 19,6 C 3,7 km/h (1 Bft)
14.09.2016 22:55 20,6 C 26,2 C 19,9 C 20,3 C 19,6 C 0,0 C 61 % 66 % 0 % 1014,6 hPa 0,0 l/m 2,7 km/h (1 Bft) O-NO 67 0 min 12,8 C 19,6 C 2,6 km/h (1 Bft)
14.09.2016 23:00 20,6 C 26,2 C 19,8 C 20,3 C 19,6 C 0,0 C 61 % 66 % 0 % 1014,6 hPa 0,0 l/m 2,6 km/h (1 Bft) S 180 0 min 12,8 C 19,6 C 0,0 km/h (0 Bft)
14.09.2016 23:05 20,5 C 26,2 C 19,6 C 20,1 C 19,2 C 0,0 C 61 % 66 % 0 % 1014,4 hPa 0,0 l/m 0,8 km/h (0 Bft) S 180 0 min 12,7 C 19,2 C 0,0 km/h (0 Bft)
14.09.2016 23:10 20,3 C 26,1 C 19,5 C 19,8 C 18,9 C 0,0 C 61 % 67 % 0 % 1014,4 hPa 0,0 l/m 0,0 km/h (0 Bft) N 360 0 min 12,5 C 18,9 C 0,0 km/h (0 Bft)
14.09.2016 23:15 19,9 C 26,1 C 19,3 C 19,4 C 18,4 C 0,0 C 62 % 67 % 0 % 1014,4 hPa 0,0 l/m 0,0 km/h (0 Bft) N-NW 337 0 min 12,4 C 18,4 C 0,0 km/h (0 Bft)
14.09.2016 23:20 19,7 C 26,2 C 19,2 C 19,2 C 18,2 C 0,0 C 62 % 68 % 0 % 1014,4 hPa 0,0 l/m 0,0 km/h (0 Bft) N-NW 337 0 min 12,2 C 18,2 C 0,0 km/h (0 Bft)
14.09.2016 23:25 19,5 C 26,2 C 18,9 C 19,0 C 18,1 C 0,0 C 63 % 68 % 0 % 1015,2 hPa 0,0 l/m 0,0 km/h (0 Bft) O-NO 67 0 min 12,3 C 18,1 C 0,0 km/h (0 Bft)
14.09.2016 23:30 19,3 C 26,2 C 18,8 C 18,8 C 17,9 C 0,0 C 63 % 69 % 0 % 1015,2 hPa 0,0 l/m 0,2 km/h (0 Bft) O-NO 67 0 min 12,1 C 17,9 C 0,0 km/h (0 Bft)
14.09.2016 23:35 19,1 C 26,2 C 18,7 C 18,7 C 17,9 C 0,0 C 64 % 69 % 0 % 1015,2 hPa 0,0 l/m 0,2 km/h (0 Bft) N-NO 22 0 min 12,1 C 17,9 C 0,0 km/h (0 Bft)
14.09.2016 23:40 19,0 C 26,2 C 18,5 C 18,6 C 17,8 C 0,0 C 64 % 69 % 0 % 1015,2 hPa 0,0 l/m 0,0 km/h (0 Bft) NO 45 0 min 12,0 C 17,8 C 0,0 km/h (0 Bft)
14.09.2016 23:45 18,9 C 26,2 C 18,5 C 18,5 C 17,8 C 0,0 C 64 % 69 % 0 % 1014,7 hPa 0,0 l/m 1,0 km/h (0 Bft) O-NO 67 0 min 11,9 C 17,8 C 3,5 km/h (1 Bft)
14.09.2016 23:50 19,0 C 26,2 C 18,7 C 18,7 C 18,1 C 0,0 C 64 % 69 % 0 % 1014,7 hPa 0,0 l/m 1,9 km/h (1 Bft) O-SO 112 0 min 12,0 C 18,1 C 2,4 km/h (1 Bft)
14.09.2016 23:55 19,3 C 26,2 C 18,9 C 18,9 C 18,2 C 0,0 C 63 % 68 % 0 % 1014,7 hPa 0,0 l/m 2,3 km/h (1 Bft) O 90 0 min 12,1 C 18,2 C 2,6 km/h (1 Bft)
_ Min-Zeit 05:30 10:11 05:25 04:40 04:40 00:00 16:20 12:25 00:00 07:05 - 00:00 - - - 05:05 04:40 00:00
Minimum _ 13,0 C 25,2 C 15,0 C 13,6 C 13,6 C 0,0 C 41 % 44 % 0 % 1013,0 hPa - 0,0 km/h (0 Bft) - - - 10,5 C 13,6 C 0,0 km/h (0 Bft)
_ Max-Zeit 16:00 00:00 12:25 14:12 14:12 08:40 08:12 05:45 07:50 23:25 00:00 15:30 - - 08:20 18:30 14:12 12:12
Maximum _ 28,7 C 26,3 C 28,9 C 32,4 C 32,4 C 8,1 C 88 % 88 % 100 % 1015,2 hPa 0,0 l/m 9,2 km/h
O-NO (2 Bft)
- - 8 min 16,9 C 32,4 C 16,9 km/h
N (3 Bft)
Durchschnitt _ 21,3 C 25,9 C 21,3 C 22,5 C 22,3 C 1,3 C 65 % 69 % 27 % 1013,7 hPa #0,0 l/m 3,3 km/h (1 Bft) O-NO - #3:15 h 13,8 C 22,3 C 4,0 km/h (1 Bft)
2016 www.wetterstation-wechselburg.de